OpenBCM V1.08-5-g2f4a (Linux)

Packet Radio Mailbox

IZ3LSV

[San Dona' di P. JN]

 Login: GUEST





  
I0OJJ  > KEPS     02.07.25 02:45l 341 Lines 16337 Bytes #69 (0) @ AMSAT
BID : ORB25183.1
Read: GUEST
Subj: 2Line Orbital Elements 25183.AMSAT
Path: IZ3LSV<IK6IHL<IK7NXU<HB9ON<DK0WUE<PD0LPM<PI8LAP<VE2PKT<VE3CGR<IR0AAB<
      I0OJJ
Sent: 250702/0025z @:I0OJJ.ITA.EU [Rome] obcm1.08-6-g5b69
From: I0OJJ @ I0OJJ.ITA.EU (Gustavo)
To:   KEPS @ AMSAT
X-Info: This message was generated automatically


QST de W1STR

AMSAT Orbital Elements for Amateur Satellites in TLE Format
From Orbital Analysis Office
New England Sci-Tech STEM Education Center
Natick, MA July 02, 2025
To all radio amateurs


These element sets describe the orbits of various satellites 
in use by the amateur radio community. For details see:
www.amsat.org/keplerian-elements-formats/

A daily update of element sets is available at:
www.amsat.org/tle/daily-bulletin.txt
or without bulletin text:
www.amsat.org/tle/dailytle.txt


AO-07
1 07530U 74089B   25182.60188351 -.00000037  00000-0  58153-4 0  9990
2 07530 101.9928 187.1004 0012646  80.5269  32.8686 12.53689953316584
UO-11
1 14781U 84021B   25182.90541978  .00001000  00000-0  11085-3 0  9996
2 14781  97.7554 148.8344 0006234 261.8003  98.2508 14.89439606225963
AO-27
1 22825U 93061C   25182.45571372  .00000077  00000-0  46647-4 0  9995
2 22825  98.7357 244.1194 0009273  54.1686 306.0356 14.30805577656848
FO-29
1 24278U 96046B   25182.56259657 -.00000035  00000-0  42841-5 0  9994
2 24278  98.5730  73.5605 0348845 285.7112  70.5810 13.53250109425743
NOAA-15
1 25338U 98030A   25182.82843033  .00000174  00000-0  89253-4 0  9993
2 25338  98.5339 207.4232 0009089 297.3963  62.6293 14.26990544411575
GO-32
1 25397U 98043D   25182.53914883  .00000048  00000-0  40686-4 0  9999
2 25397  98.9712 162.1179 0002084 120.2458 239.8926 14.24319558401418
ISS
1 25544U 98067A   25182.83204607  .00005749  00000-0  10743-3 0  9991
2 25544  51.6347 234.4916 0002352 318.4634  41.6176 15.50322094517434
NO-44
1 26931U 01043C   25182.85998975  .00000086  00000-0  63433-4 0  9994
2 26931  67.0513  70.2351 0006157 276.7357  83.3044 14.31743731240450
SO-50
1 27607U 02058C   25182.15136359  .00001007  00000-0  14259-3 0  9990
2 27607  64.5520 133.9463 0058756 329.3344  30.4332 14.81675476212429
CO-55
1 27844U 03031E   25182.81305815  .00000251  00000-0  12839-3 0  9995
2 27844  98.6753 190.7993 0010740 119.4379 240.7873 14.24010625141832
CO-57
1 27848U 03031J   25182.27978616  .00000205  00000-0  10960-3 0  9996
2 27848  98.6781 190.2622 0010364 136.6371 223.5624 14.23343083141453
RS-22
1 27939U 03042A   25182.91123172  .00000798  00000-0  13440-3 0  9992
2 27939  98.3298 352.9041 0010295 302.7994 216.9095 14.72396108164112
CO-58
1 28895U 05043F   25181.67229267  .00000992  00000-0  16966-3 0  9993
2 28895  98.2524 326.2892 0013441 237.0722 122.9192 14.71067966 50044
CO-65
1 32785U 08021C   25182.55283268  .00003300  00000-0  23936-3 0  9995
2 32785  97.7848 153.8824 0010906 132.2847 227.9305 15.04589491932383
CO-66
1 32791U 08021J   25182.50916278  .00009121  00000-0  43739-3 0  9991
2 32791  97.7284 163.0463 0005791  94.1114 266.0782 15.19121306933821
RS-30
1 32953U 08025A   25182.85563370  .00000011  00000-0  84758-5 0  9991
2 32953  82.5012 213.3253 0019123   1.2970 358.8156 12.43165833776301
NOAA-19
1 33591U 09005A   25182.85713125  .00000148  00000-0  10304-3 0  9999
2 33591  98.9964 247.6859 0012772 303.1238  56.8708 14.13383912845251
SRMSAT
1 37841U 11058D   25182.85943279  .00000371  00000-0  57867-4 0  9991
2 37841  19.9737  19.7250 0011745 310.1599  77.6096 14.11441623708480
ZACUBE-1
1 39417U 13066B   25182.84821400  .00003300  00000-0  28783-3 0  9992
2 39417  97.7814 139.7466 0043493 340.2100  19.7432 14.96835085628248
Delfi-N3xt
1 39428U 13066N   25182.74445147  .00004117  00000-0  42055-3 0  9998
2 39428  97.8335 100.1504 0082763 288.0781  71.1433 14.88632879622559
GOMX-1
1 39430U 13066Q   25182.84808783  .00001607  00000-0  25435-3 0  9995
2 39430  97.6817  40.1439 0133610 120.8175 240.6259 14.67710302618675
LO-74
1 39440U 13066AA  25182.83907954  .00002665  00000-0  27171-3 0  9999
2 39440  97.8498 127.2472 0063449 106.1802 254.6410 14.90048004625955
AO-73
1 39444U 13066AE  25182.85743105  .00005392  00000-0  40267-3 0  9992
2 39444  97.7801 144.8602 0041162 312.6020  47.1735 15.02576456627521
DTUSAT-2
1 40030U 14033W   25182.84580938  .00005006  00000-0  32517-3 0  9993
2 40030  98.0563 155.7458 0008798 357.3362   2.7816 15.08499910600260
EO-80
1 40032U 14033Y   25182.86486271  .00005601  00000-0  36259-3 0  9990
2 40032  98.0444 155.3897 0006886 289.3812  70.6671 15.08581853600253
LILACSAT-2
1 40908U 15049K   25182.84422473  .00009460  00000-0  24401-3 0  9995
2 40908  97.5050 203.7329 0010993  84.0940 276.1558 15.39336806541651
IO-86
1 40931U 15052B   25151.18580175  .00001241  00000-0  78118-4 0  9996
2 40931   6.0006  24.0987 0012733 338.8432  21.1169 14.78805930523047
Horyu-4
1 41340U 16012D   25182.55243013  .00017867  00000-0  46421-3 0  9992
2 41340  30.9980 344.0833 0006349 295.1626  64.8361 15.37668690516170
Lapan A3
1 41603U 16040E   25182.86910997  .00002535  00000-0  89707-4 0  9992
2 41603  97.1370 186.6035 0010882 179.9336 180.1909 15.29985246501194
CAS-2T
1 41847U 16066G   25182.58651373  .00001455  00000-0  21340-3 0  9997
2 41847  98.4196 256.8562 0347092 111.8987 251.9485 14.43549446454198
CAS-4B
1 42759U 17034B   25182.49045642  .00056790  00000-0  53743-3 0  9996
2 42759  43.0048 191.0272 0019090  82.4453 277.8581 15.65901614446038
CAS-4A
1 42761U 17034D   25182.88704783  .00064046  00000-0  56867-3 0  9993
2 42761  43.0086 185.5517 0020144  90.3916 269.9259 15.67402948446129
TechnoSat
1 42829U 17042E   25182.69855625  .00002106  00000-0  16552-3 0  9994
2 42829  97.3856 350.3493 0016018 198.4839 161.5807 15.01793895434041
AO-91
1 43017U 17073E   25182.60255645  .00007434  00000-0  37698-3 0  9998
2 43017  97.5210  52.8164 0173203  91.6153 270.4921 15.05020471412522
S-Net D
1 43186U 18014G   25182.20691377  .00004162  00000-0  24600-3 0  9997
2 43186  97.5603  84.8932 0010052 142.3315 217.8621 15.11989590405649
S-Net B
1 43187U 18014H   25182.67586286  .00004129  00000-0  24415-3 0  9998
2 43187  97.5607  85.3302 0010857 137.1946 223.0131 15.11972050405712
S-Net A
1 43188U 18014J   25182.73666599  .00003998  00000-0  23638-3 0  9991
2 43188  97.5616  85.5435 0010765 137.4007 222.8060 15.11998268405729
S-Net C
1 43189U 18014K   25182.67832353  .00004166  00000-0  24628-3 0  9996
2 43189  97.5631  85.5038 0012397 132.0129 228.2159 15.11967280404262
Ten-Koh
1 43677U 18084G   25182.46700293  .00001655  00000-0  13595-3 0  9990
2 43677  98.0854 355.5890 0007382 177.2885 182.8379 15.00653914363527
PO-101
1 43678U 18084H   25182.82643287  .00001750  00000-0  15196-3 0  9995
2 43678  98.1033 359.8000 0008221 204.2572 155.8263 14.98403400363717
QO-100
1 43700U 18090A   25182.57238781  .00000147  00000-0  00000-0 0  9993
2 43700   0.0197  31.7628 0002189 103.4652  16.4675  1.00271184 24167
MinXSS-2
1 43758U 18099A   25182.69027582  .00011720  00000-0  45346-3 0  9997
2 43758  97.5006 248.8041 0013058  81.9959 278.2760 15.26282052360342
AO-95
1 43770U 18099N   25182.60817005  .00006602  00000-0  33166-3 0  9999
2 43770  97.4899 240.4533 0012074 131.4611 228.7661 15.17548984359899
RANGE-A
1 43773U 18099R   25182.61333578  .00004169  00000-0  26532-3 0  9996
2 43773  97.4464 230.3767 0012828 114.1987 246.0585 15.09250678359549
MOVE-II
1 43780U 18099Y   25182.70878976  .00527990  11192-3  15668-2 0  9996
2 43780  97.4638 260.2930 0007690 236.6364 123.4174 15.92449846361302
SNUSat 2
1 43782U 18099AA  25182.67032601  .00005271  00000-0  28615-3 0  9994
2 43782  97.4581 237.0854 0013608  80.5093 279.7676 15.14877649359847
SnugLite
1 43784U 18099AC  25182.10616140  .00006709  00000-0  33424-3 0  9991
2 43784  97.4391 236.1363 0005085  88.3114 271.8703 15.17880333359901
ITASat 1
1 43786U 18099AE  25182.70062921  .00005482  00000-0  31194-3 0  9990
2 43786  97.4549 236.5596 0015727 127.2940 232.9727 15.13153672359802
EAGLET 1
1 43790U 18099AJ  25182.69636633  .00003795  00000-0  24218-3 0  9994
2 43790  97.4747 236.4387 0013572 112.1713 248.0957 15.09204231359403
ESEO
1 43792U 18099AL  25182.64308638  .00000748  00000-0  60305-4 0  9995
2 43792  97.4464 229.3572 0015085  87.3597 272.9355 15.02683359359135
CSIM
1 43793U 18099AM  25182.71223025  .00092817  00000-0  49878-3 0  9999
2 43793  97.4779 262.4024 0004406 136.7706 223.3908 15.79967198361138
JO-97
1 43803U 18099AX  25182.88597051  .00008822  00000-0  39761-3 0  9995
2 43803  97.4647 241.7675 0008860  74.1144 286.1068 15.21240865360163
Suomi 100
1 43804U 18099AY  25182.60731890  .00006936  00000-0  33652-3 0  9994
2 43804  97.4712 240.7242 0013778  75.3477 284.9283 15.18727174360043
ISAT
1 43879U 18111D   25182.20458176  .00015713  00000-0  53314-3 0  9990
2 43879  97.5939  97.0840 0010641 116.5133 243.7200 15.30557440357002
UWE-4
1 43880U 18111E   25182.50488146  .00011830  00000-0  45606-3 0  9996
2 43880  97.5884  95.7145 0013465 128.0019 232.2437 15.26399145356975
Sparrow
1 43881U 18111F   25182.49543561  .00015524  00000-0  50656-3 0  9993
2 43881  97.6086 100.3452 0007985 146.0221 214.1533 15.31845416357149
Prox-1
1 44339U 19036A   25182.59558030  .00007504  00000-0  92871-3 0  9991
2 44339  23.9972 277.1430 0007090 330.0274  29.9817 14.80313991321287
SONATE
1 44400U 19038Q   25182.58826500  .01624063  26085-5  74292-3 0  9990
2 44400  97.6673 213.0303 0009663 214.0618 146.0052 16.21848806333102
Taurus 1
1 44530U 19059C   25182.84097887  .00004451  00000-0  82034-3 0  9993
2 44530  98.6094 323.2960 0008112 331.9219  28.1545 14.66049576307204
Duchifat 3
1 44854U 19089C   25182.43341794  .00034657  00000-0  64054-3 0  9992
2 44854  36.9410 216.0710 0004026 155.9577 204.1368 15.48136106306400
TO-108
1 44881U 19093C   25182.85386816  .00000725  00000-0  89689-4 0  9998
2 44881  97.7920 258.0380 0014460 153.3134 206.8828 14.85637478299380
